ANZ5MK EDDN-EDDF

Flight info

Callsign ANZ5MK
Flight time 0h 30m
Altitude 24000
Route SUKAD1G SUKAD DCT PIWAW T159 SPESA SPESA4C
Aircraft A20N/M-SDE2E3FGHIRWXY/LB1

Departure

Time 2026-04-14 13:04
Airport Nuremberg Airport (EDDN)

Arrival

Time 2026-04-14 13:34
Airport Frankfurt Main Airport (EDDF)
Time Latitude Longitude Altitude Speed Heading
2026-04-14 12:45 49.49474 11.08166 1037 ft 0 kts 188°
2026-04-14 12:56 49.49475 11.08166 1037 ft 0 kts 188°
2026-04-14 12:58 49.49490 11.08170 1037 ft 2 kts 188°
2026-04-14 12:58 49.49507 11.08174 1038 ft 2 kts 188°
2026-04-14 12:58 49.49524 11.08176 1040 ft 3 kts 165°
2026-04-14 12:59 49.49540 11.08162 1040 ft 3 kts 124°
2026-04-14 12:59 49.49546 11.08134 1021 ft 2 kts 84°
2026-04-14 12:59 49.49546 11.08131 1020 ft 0 kts 88°
2026-04-14 13:00 49.49546 11.08128 1040 ft 0 kts 88°
2026-04-14 13:01 49.49546 11.08151 1041 ft 5 kts 92°
2026-04-14 13:01 49.49542 11.08227 1042 ft 11 kts 96°
2026-04-14 13:01 49.49545 11.08336 1044 ft 7 kts 52°
2026-04-14 13:01 49.49586 11.08365 1046 ft 8 kts 12°
2026-04-14 13:02 49.49613 11.08439 1046 ft 18 kts 92°
2026-04-14 13:02 49.49582 11.08784 1050 ft 43 kts 98°
2026-04-14 13:02 49.49527 11.09322 1058 ft 54 kts 99°
2026-04-14 13:02 49.49683 11.09538 1063 ft 24 kts 327°
2026-04-14 13:03 49.49709 11.09446 1060 ft 0 kts 276°
2026-04-14 13:03 49.49709 11.09438 1060 ft 6 kts 276°
2026-04-14 13:03 49.49751 11.09013 1055 ft 77 kts 278°
2026-04-14 13:04 49.49880 11.07819 1069 ft 143 kts 283°
2026-04-14 13:04 49.50086 11.06259 1654 ft 151 kts 283°
2026-04-14 13:04 49.50279 11.04680 2548 ft 151 kts 283°
2026-04-14 13:04 49.50436 11.03062 3328 ft 158 kts 281°
2026-04-14 13:05 49.50570 11.01286 4017 ft 175 kts 278°
2026-04-14 13:05 49.50687 10.99340 4708 ft 190 kts 278°
2026-04-14 13:05 49.50847 10.97229 5345 ft 209 kts 279°
2026-04-14 13:05 49.51068 10.94921 6037 ft 226 kts 280°
2026-04-14 13:06 49.51329 10.92467 6777 ft 240 kts 279°
2026-04-14 13:06 49.51602 10.89845 7480 ft 255 kts 279°
2026-04-14 13:06 49.51881 10.87064 8193 ft 270 kts 278°
2026-04-14 13:06 49.52169 10.84127 8910 ft 286 kts 277°
2026-04-14 13:07 49.52470 10.81017 9648 ft 301 kts 277°
2026-04-14 13:07 49.52783 10.77749 10334 ft 317 kts 277°
2026-04-14 13:07 49.53111 10.74309 10940 ft 333 kts 277°
2026-04-14 13:07 49.53455 10.70694 11490 ft 349 kts 277°
2026-04-14 13:08 49.53816 10.66892 11885 ft 369 kts 278°
2026-04-14 13:08 49.54196 10.62878 12295 ft 387 kts 278°
2026-04-14 13:08 49.54587 10.58728 12962 ft 395 kts 278°
2026-04-14 13:08 49.55129 10.54564 13746 ft 400 kts 287°
2026-04-14 13:09 49.56272 10.50631 14475 ft 404 kts 298°
2026-04-14 13:09 49.57733 10.46962 15131 ft 410 kts 303°
2026-04-14 13:09 49.59389 10.43346 15801 ft 415 kts 305°
2026-04-14 13:09 49.61128 10.39757 16414 ft 419 kts 306°
2026-04-14 13:10 49.62890 10.36158 16944 ft 423 kts 306°
2026-04-14 13:10 49.64655 10.32513 17155 ft 425 kts 306°
2026-04-14 13:10 49.66391 10.28866 17178 ft 426 kts 305°
2026-04-14 13:10 49.68146 10.25122 17175 ft 427 kts 304°
2026-04-14 13:11 49.69876 10.21389 17170 ft 428 kts 304°
2026-04-14 13:11 49.71600 10.17640 17180 ft 428 kts 304°
2026-04-14 13:11 49.73324 10.13882 17175 ft 428 kts 304°
2026-04-14 13:11 49.75044 10.10124 17168 ft 428 kts 304°
2026-04-14 13:12 49.76701 10.06297 17169 ft 427 kts 299°
2026-04-14 13:12 49.77941 10.02146 17079 ft 423 kts 288°
2026-04-14 13:12 49.78677 9.97798 16340 ft 414 kts 281°
2026-04-14 13:12 49.79187 9.93414 15406 ft 411 kts 279°
2026-04-14 13:13 49.79633 9.89062 14552 ft 407 kts 278°
2026-04-14 13:13 49.80059 9.84769 13691 ft 402 kts 278°
2026-04-14 13:13 49.80472 9.80569 12795 ft 397 kts 278°
2026-04-14 13:13 49.80885 9.76377 11890 ft 393 kts 278°
2026-04-14 13:14 49.81295 9.72210 11012 ft 389 kts 278°
2026-04-14 13:14 49.81696 9.68098 10131 ft 385 kts 278°
2026-04-14 13:14 49.82092 9.64017 9193 ft 382 kts 278°
2026-04-14 13:14 49.82482 9.59971 8512 ft 378 kts 278°
2026-04-14 13:15 49.82860 9.56039 8203 ft 358 kts 279°
2026-04-14 13:15 49.83214 9.52349 8154 ft 333 kts 279°
2026-04-14 13:15 49.83540 9.48937 8149 ft 309 kts 278°
2026-04-14 13:15 49.83844 9.45751 8153 ft 288 kts 278°
2026-04-14 13:16 49.84127 9.42766 8158 ft 274 kts 279°
2026-04-14 13:16 49.84403 9.39856 8166 ft 273 kts 279°
2026-04-14 13:16 49.84679 9.36940 8166 ft 274 kts 278°
2026-04-14 13:16 49.84955 9.34020 8164 ft 274 kts 278°
2026-04-14 13:17 49.85227 9.31128 8163 ft 274 kts 278°
2026-04-14 13:17 49.85501 9.28202 8165 ft 274 kts 278°
2026-04-14 13:17 49.85768 9.25343 8167 ft 274 kts 278°
2026-04-14 13:17 49.86047 9.22355 8165 ft 275 kts 278°
2026-04-14 13:18 49.86320 9.19421 8166 ft 275 kts 278°
2026-04-14 13:18 49.86592 9.16488 8170 ft 275 kts 278°
2026-04-14 13:18 49.86864 9.13552 8175 ft 275 kts 278°
2026-04-14 13:18 49.87129 9.10670 8167 ft 275 kts 278°
2026-04-14 13:19 49.87404 9.07684 8172 ft 275 kts 278°
2026-04-14 13:19 49.87664 9.04848 8168 ft 275 kts 278°
2026-04-14 13:19 49.87932 9.01918 8171 ft 275 kts 278°
2026-04-14 13:19 49.88200 8.98982 8171 ft 275 kts 278°
2026-04-14 13:20 49.88466 8.96045 8175 ft 275 kts 278°
2026-04-14 13:20 49.88731 8.93108 8173 ft 275 kts 279°
2026-04-14 13:20 49.88998 8.90169 8175 ft 275 kts 278°
2026-04-14 13:20 49.89264 8.87223 8177 ft 275 kts 278°
2026-04-14 13:21 49.89528 8.84285 8179 ft 275 kts 278°
2026-04-14 13:21 49.89788 8.81383 8182 ft 275 kts 278°
2026-04-14 13:21 49.90051 8.78439 8179 ft 275 kts 278°
2026-04-14 13:21 49.90313 8.75496 8180 ft 276 kts 279°
2026-04-14 13:22 49.90573 8.72563 8176 ft 269 kts 279°
2026-04-14 13:22 49.90819 8.69768 8167 ft 252 kts 279°
2026-04-14 13:22 49.91050 8.67144 8179 ft 244 kts 279°
2026-04-14 13:22 49.91280 8.64526 8180 ft 244 kts 279°
2026-04-14 13:23 49.91433 8.62797 8185 ft 244 kts 279°
2026-04-14 13:23 49.91663 8.60178 8185 ft 245 kts 279°
2026-04-14 13:23 49.91892 8.57566 8183 ft 245 kts 279°
2026-04-14 13:23 49.92121 8.54943 8187 ft 245 kts 279°
2026-04-14 13:24 49.92351 8.52333 8184 ft 244 kts 281°
2026-04-14 13:24 49.92347 8.47104 8131 ft 246 kts 256°
2026-04-14 13:24 49.91794 8.44590 7799 ft 247 kts 251°
2026-04-14 13:25 49.91173 8.42096 7445 ft 248 kts 250°
2026-04-14 13:25 49.90547 8.39600 7135 ft 247 kts 251°
2026-04-14 13:26 49.88712 8.32139 6123 ft 246 kts 251°
2026-04-14 13:26 49.88118 8.29702 5833 ft 244 kts 251°
2026-04-14 13:26 49.87514 8.27219 5543 ft 242 kts 251°
2026-04-14 13:26 49.86931 8.24822 5273 ft 240 kts 251°
2026-04-14 13:27 49.86344 8.22411 4999 ft 239 kts 251°
2026-04-14 13:27 49.85758 8.19999 4710 ft 237 kts 252°
2026-04-14 13:27 49.85571 8.17507 4411 ft 232 kts 282°
2026-04-14 13:27 49.86241 8.15296 4097 ft 226 kts 315°
2026-04-14 13:28 49.87526 8.13989 3998 ft 221 kts 339°
2026-04-14 13:28 49.88998 8.13290 3986 ft 222 kts 356°
2026-04-14 13:28 49.90484 8.13757 3993 ft 221 kts 28°
2026-04-14 13:28 49.91701 8.15176 3998 ft 223 kts 41°
2026-04-14 13:29 49.92821 8.16838 3998 ft 224 kts 43°
2026-04-14 13:29 49.93932 8.18547 3995 ft 225 kts 46°
2026-04-14 13:29 49.94853 8.20511 4000 ft 226 kts 59°
2026-04-14 13:29 49.95473 8.22747 4020 ft 224 kts 68°
2026-04-14 13:30 49.95999 8.25028 4004 ft 225 kts 68°
2026-04-14 13:30 49.96537 8.27324 3934 ft 226 kts 68°
2026-04-14 13:30 49.97078 8.29605 3670 ft 225 kts 68°
2026-04-14 13:30 49.97627 8.31887 3330 ft 225 kts 68°
2026-04-14 13:31 49.98173 8.34169 2983 ft 224 kts 68°
2026-04-14 13:31 49.98712 8.36429 2670 ft 222 kts 68°
2026-04-14 13:31 49.99244 8.38670 2370 ft 220 kts 68°
2026-04-14 13:31 49.99761 8.40838 2059 ft 211 kts 67°
2026-04-14 13:32 50.00252 8.42897 1807 ft 194 kts 68°
2026-04-14 13:32 50.00697 8.44765 1507 ft 176 kts 68°
2026-04-14 13:32 50.01110 8.46495 1302 ft 165 kts 67°
2026-04-14 13:32 50.01493 8.48102 1081 ft 152 kts 66°
2026-04-14 13:33 50.01835 8.49562 877 ft 137 kts 67°
2026-04-14 13:33 50.02143 8.50912 685 ft 129 kts 65°
2026-04-14 13:33 50.02465 8.52215 533 ft 129 kts 65°
2026-04-14 13:33 50.02769 8.53497 375 ft 125 kts 66°
2026-04-14 13:34 50.03231 8.55416 358 ft 44 kts 71°
2026-04-14 13:34 50.03381 8.55789 364 ft 29 kts 39°
2026-04-14 13:34 50.03422 8.55839 361 ft 0 kts 39°
2026-04-14 13:35 50.03435 8.55856 364 ft 9 kts 39°
2026-04-14 13:35 50.03475 8.55907 358 ft 0 kts 39°
2026-04-14 13:38 50.03484 8.55920 362 ft 8 kts 40°
2026-04-14 13:38 50.03533 8.55984 367 ft 9 kts 40°
2026-04-14 13:38 50.03576 8.56040 363 ft 8 kts 40°
2026-04-14 13:38 50.03632 8.56119 362 ft 14 kts 46°
2026-04-14 13:39 50.03684 8.56281 364 ft 20 kts 69°
2026-04-14 13:39 50.03735 8.56489 365 ft 24 kts 67°
2026-04-14 13:39 50.03763 8.56596 364 ft 0 kts 65°
2026-04-14 13:39 50.03766 8.56614 367 ft 7 kts 71°
2026-04-14 13:40 50.03792 8.56720 364 ft 12 kts 69°
2026-04-14 13:40 50.03835 8.56899 366 ft 24 kts 69°
2026-04-14 13:40 50.03904 8.57186 368 ft 32 kts 69°
2026-04-14 13:40 50.03982 8.57518 371 ft 33 kts 68°
2026-04-14 13:41 50.04064 8.57861 366 ft 34 kts 71°
2026-04-14 13:41 50.04148 8.58209 371 ft 34 kts 69°
2026-04-14 13:41 50.04226 8.58541 376 ft 26 kts 65°
2026-04-14 13:41 50.04363 8.58632 376 ft 20 kts
2026-04-14 13:42 50.04394 8.58637 377 ft 0 kts
2026-04-14 13:42 50.04445 8.58645 377 ft 15 kts
2026-04-14 13:43 50.04571 8.58709 373 ft 23 kts 34°
2026-04-14 13:43 50.04726 8.58766 373 ft 17 kts
2026-04-14 13:43 50.04788 8.58741 373 ft 7 kts 340°
2026-04-14 13:43 50.04833 8.58716 374 ft 7 kts 340°
2026-04-14 13:44 50.04883 8.58687 373 ft 9 kts 329°
2026-04-14 13:44 50.04885 8.58502 375 ft 22 kts 247°
2026-04-14 13:44 50.04845 8.58392 375 ft 1 kts 168°
2026-04-14 13:44 50.04830 8.58404 375 ft 5 kts 153°